COSMOS 713

Satellite information

Favourite Embed

Satellite Type and Status

PAYLOADIN ORBIT

Key statistics

Satellite COSMOS 713 at a glance.

Uptime

18393

Days in orbit

Revolutions

≈ 12.6

Per day

Orbit

LEO

Low Earth Orbit

Inclination

74.0

Latest

Satellite identification and parameters

Extended collection of information and parameters for COSMOS 713.

Object identification

Identified? True

Debris? False

Object name: COSMOS 713

International designator: 1975-016C

Object number (NORAD): 7680

Object ID (CCSDS): 7680

Country: COMMONWEALTH OF INDEPENDENT STATES (CIS)

Current information (Y/N): Y

RCS size: MEDIUM

Orbital parameters

Period: 114.68 minutes

Inclination: 74.0035 deg

SMA: 7819.011 km

Apoapsis: 1486.92 km

Periapsis: 1394.831 km

RAAN: 121.761 deg

Eccentricy: 0.0058888

Argument of periapsis: 307.6269 deg

Mean anomaly: 121.0562 deg

Mean motion: 12.55668617 rev/day

Mean motion (dot): -0.00000033 rev/day2

B* drag term: -0.000098989 1/REarth

Two-line elements (TLE)

Creation date: July 8, 2025, 2:27 a.m.

Reference frame: TEME

Reference center: EARTH

Epoch: July 7, 2025, 10:48 p.m. UTC

TLE line 0: 0 COSMOS 713

TLE line 1: 1 07680U 75016C 25188.95047836 -.00000033 00000-0 -98989-4 0 9991

TLE line 2: 2 07680 74.0035 121.7610 0058888 307.6269 121.0562 12.55668617308195

Live tracking on map

Real-time ground track for satellite COSMOS 713.

In-orbit conjunctions

There are no conjunctions computed for COSMOS 713, at the moment. Check back to stay up to date, as we update our databases every day.

Go to all conjunctions

Associated space launch

Military communications satellites

COSMOS 713 was lifted into orbit during the mission ‘Kosmos-3M | Strela-1M 81-88’, on board a Kosmos-3M space rocket.

The launch took place on Feb. 28, 1975, 2:01 p.m. from 132/2.

For more information about the launch, click the button.

Launch to space Kosmos-3M | Strela-1M 81-88
Kosmos-3M | Strela-1M 81-88

Agency: N/A

Status: Launch Successful

Launch date: Feb. 28, 1975, 2:01 p.m. UTC

Rocket: Kosmos-3M

Launch pad: 132/2

Location: Plesetsk Cosmodrome, Russian Federation

...

Latest news about this satellite

There are no fresh news available about this satellite. Check back as we update our databases every day.


Newsletter sign-up

Weekly statistics, charts and insights to help you stay on top of the space industry.